Regional Weather Roundup
Issued by NWS Sioux Falls, SD

Home | Current Version | Previous Version | Graphics & Text | Print | Product List | Glossary Off
Versions: 1 2 3 4 5 6 7 8 9 10 11 12 13 14 15 16 17 18 19 20 21 22 23 24 25 26 27 28 29 30 31 32 33 34 35 36 37 38 39 40 41 42 43 44 45 46 47 48 49 50

000
ASUS43 KFSD 161610
RWRFSD

WEATHER ROUNDUP FOR SE SOUTH DAKOTA/SW MINNESOTA/NW IOWA
NATIONAL WEATHER SERVICE SIOUX FALLS SD
1000 AM CST SAT DEC 16 2017

NOTE: "FAIR" INDICATES FEW OR NO CLOUDS BELOW 12,000 FEET WITH NO
SIGNIFICANT WEATHER AND OR OBSTRUCTIONS TO VISIBILITY.


SDZ038>040-050-052>070-161700-
SOUTHEAST SOUTH DAKOTA

CITY           SKY/WX    TMP DP  RH WIND       PRES   REMARKS
BROOKINGS      CLOUDY    33  28  81 NW6       29.83R WCI  28
CHAMBERLAIN    MOSUNNY   37  30  75 NW8       29.89R
HURON          CLOUDY    38  31  76 N10       29.87R
MADISON        CLOUDY    36  36 100 N12       29.83R
MITCHELL       CLOUDY    36  29  75 N8        29.87R
SIOUX FALLS    CLOUDY    37  29  72 N6        29.83R
WINNER         FAIR      36  28  73 NW3       29.90R
YANKTON        CLOUDY    36  26  67 NW10      29.87R
$$

MNZ071-072-080-081-089-090-097-098-161700-
SOUTHWEST MINNESOTA

CITY           SKY/WX    TMP DP  RH WIND       PRES   REMARKS
FAIRMONT       CLOUDY    34  27  75 NW10      29.81R WCI  26
JACKSON        CLOUDY    32  28  86 NW5       29.81R WCI  27
LUVERNE        MOSUNNY   32  27  80 CALM      29.83R
MARSHALL       CLOUDY    37  30  75 N12       29.82R
MONTEVIDEO     PTSUNNY   30  28  93 CALM      29.84R
PIPESTONE      MOSUNNY   34  27  75 N8        29.80R WCI  27
REDWOOD FALLS  CLOUDY    32  29  88 N7        29.82R FOG     WCI  26
WINDOM           N/A     37  23  56 NW8       29.80R
WORTHINGTON    CLOUDY    34  27  75 NW9       29.81R WCI  27
$$

IAZ001>003-012>014-020>022-031-032-NEZ013-014-SDZ071-161700-
NORTHWEST IOWA

CITY           SKY/WX    TMP DP  RH WIND       PRES   REMARKS
CHEROKEE       CLOUDY    36  29  74 CALM      29.83R
DENISON        SUNNY     39  25  56 W5        29.83R
ESTHERVILLE    CLOUDY    35  28  75 NW9       29.80R WCI  28
LE MARS        CLOUDY    41  28  60 N7        29.84R
ORANGE CITY    CLOUDY    37  30  75 NW7       29.82R
SHELDON        CLOUDY    34  28  80 N9        29.80R WCI  26
SIOUX CITY     CLOUDY    38  27  64 NW9       29.83R
SPENCER        CLOUDY    36  28  73 NW7       29.81R
STORM LAKE     SUNNY     37  27  65 NW10      29.81R
$$

ABBREVIATIONS USED IN REMARKS
   TC - TEMPERATURE IN CELSIUS
  WCI - WIND CHILL INDEX
   HX - HEAT INDEX
  VSB - VISIBILITY




USA.gov is the U.S. government's official web portal to all federal, state and local government web resources and services.